SWA744 PHNL-PHLI

Flight info

Callsign SWA744
Flight time 0h 22m
Altitude 12000
Route KEOLA3 LIH
Aircraft B38M/M-SDE1FGHILORVWXY/HB1

Departure

Time 2026-04-12 05:31
Airport Daniel K. Inouye International Airport (PHNL)

Arrival

Time 2026-04-12 05:54
Airport Lihue Airport (PHLI)
Time Latitude Longitude Altitude Speed Heading
2026-04-12 05:15 21.32868 -157.92021 26 ft 0 kts 358°
2026-04-12 05:22 21.32858 -157.92021 26 ft 3 kts 358°
2026-04-12 05:22 21.32838 -157.92020 26 ft 3 kts 358°
2026-04-12 05:23 21.32819 -157.92020 26 ft 3 kts 10°
2026-04-12 05:23 21.32800 -157.92027 26 ft 3 kts 32°
2026-04-12 05:23 21.32785 -157.92040 26 ft 3 kts 52°
2026-04-12 05:23 21.32775 -157.92058 26 ft 3 kts 73°
2026-04-12 05:24 21.32773 -157.92073 26 ft 1 kts 90°
2026-04-12 05:24 21.32773 -157.92090 26 ft 2 kts 90°
2026-04-12 05:24 21.32773 -157.92097 26 ft 1 kts 90°
2026-04-12 05:26 21.32773 -157.92095 26 ft 1 kts 90°
2026-04-12 05:27 21.32774 -157.92026 26 ft 18 kts 89°
2026-04-12 05:27 21.32775 -157.91824 26 ft 35 kts 90°
2026-04-12 05:27 21.32774 -157.91539 26 ft 40 kts 90°
2026-04-12 05:27 21.32774 -157.91270 26 ft 26 kts 85°
2026-04-12 05:28 21.32874 -157.91108 28 ft 27 kts 52°
2026-04-12 05:28 21.32992 -157.90943 26 ft 29 kts 53°
2026-04-12 05:28 21.33034 -157.90770 30 ft 17 kts 114°
2026-04-12 05:28 21.32939 -157.90684 26 ft 19 kts 143°
2026-04-12 05:29 21.32830 -157.90594 26 ft 21 kts 141°
2026-04-12 05:29 21.32745 -157.90563 26 ft 9 kts 219°
2026-04-12 05:29 21.32713 -157.90601 28 ft 12 kts 232°
2026-04-12 05:29 21.32657 -157.90683 28 ft 15 kts 232°
2026-04-12 05:30 21.32587 -157.90777 28 ft 17 kts 231°
2026-04-12 05:30 21.32542 -157.90839 28 ft 5 kts 233°
2026-04-12 05:30 21.32526 -157.90907 26 ft 12 kts 270°
2026-04-12 05:30 21.32526 -157.91051 26 ft 54 kts 270°
2026-04-12 05:31 21.32526 -157.91731 26 ft 126 kts 270°
2026-04-12 05:31 21.32527 -157.92885 63 ft 178 kts 269°
2026-04-12 05:31 21.32533 -157.94258 738 ft 184 kts 267°
2026-04-12 05:31 21.32211 -157.95554 1556 ft 184 kts 232°
2026-04-12 05:32 21.31223 -157.96397 2353 ft 184 kts 209°
2026-04-12 05:32 21.30035 -157.97051 2884 ft 207 kts 206°
2026-04-12 05:32 21.28656 -157.97732 3452 ft 229 kts 205°
2026-04-12 05:32 21.27145 -157.98470 4077 ft 248 kts 206°
2026-04-12 05:33 21.25759 -157.99644 4702 ft 265 kts 237°
2026-04-12 05:33 21.25249 -158.01503 5759 ft 263 kts 267°
2026-04-12 05:33 21.25468 -158.03478 6644 ft 271 kts 278°
2026-04-12 05:33 21.25667 -158.05495 7541 ft 272 kts 272°
2026-04-12 05:34 21.25827 -158.07525 8520 ft 274 kts 273°
2026-04-12 05:34 21.26004 -158.09568 9474 ft 276 kts 273°
2026-04-12 05:34 21.26192 -158.11625 10356 ft 280 kts 274°
2026-04-12 05:34 21.26388 -158.13765 10824 ft 298 kts 274°
2026-04-12 05:35 21.26596 -158.16054 11158 ft 319 kts 274°
2026-04-12 05:35 21.26820 -158.18477 11599 ft 333 kts 274°
2026-04-12 05:35 21.27056 -158.20973 11894 ft 338 kts 274°
2026-04-12 05:35 21.27298 -158.23516 11953 ft 351 kts 274°
2026-04-12 05:36 21.27552 -158.26184 11955 ft 368 kts 274°
2026-04-12 05:36 21.27818 -158.28953 11968 ft 376 kts 274°
2026-04-12 05:36 21.28092 -158.31764 11972 ft 381 kts 274°
2026-04-12 05:36 21.28373 -158.34594 12000 ft 382 kts 275°
2026-04-12 05:37 21.28655 -158.37430 11996 ft 382 kts 275°
2026-04-12 05:37 21.28934 -158.40228 11996 ft 382 kts 274°
2026-04-12 05:37 21.29217 -158.43064 11997 ft 382 kts 275°
2026-04-12 05:37 21.29499 -158.45896 11994 ft 382 kts 275°
2026-04-12 05:38 21.29978 -158.48707 11975 ft 384 kts 287°
2026-04-12 05:38 21.31193 -158.51270 12004 ft 388 kts 298°
2026-04-12 05:38 21.32599 -158.53749 11993 ft 388 kts 298°
2026-04-12 05:38 21.34016 -158.56214 12002 ft 388 kts 298°
2026-04-12 05:39 21.35443 -158.58677 11995 ft 388 kts 299°
2026-04-12 05:39 21.36872 -158.61133 12002 ft 388 kts 298°
2026-04-12 05:39 21.38302 -158.63586 12000 ft 388 kts 298°
2026-04-12 05:39 21.39704 -158.65988 11976 ft 371 kts 298°
2026-04-12 05:40 21.41037 -158.68275 11940 ft 354 kts 298°
2026-04-12 05:40 21.42333 -158.70500 11571 ft 349 kts 298°
2026-04-12 05:40 21.43603 -158.72679 11394 ft 339 kts 298°
2026-04-12 05:40 21.44833 -158.74791 11225 ft 329 kts 298°
2026-04-12 05:41 21.46027 -158.76842 11055 ft 320 kts 298°
2026-04-12 05:41 21.47177 -158.78819 10895 ft 311 kts 298°
2026-04-12 05:41 21.48303 -158.80755 10741 ft 302 kts 298°
2026-04-12 05:41 21.49400 -158.82640 10586 ft 293 kts 298°
2026-04-12 05:42 21.50464 -158.84472 10442 ft 285 kts 298°
2026-04-12 05:42 21.51499 -158.86250 10305 ft 276 kts 298°
2026-04-12 05:42 21.52505 -158.87980 10149 ft 269 kts 297°
2026-04-12 05:43 21.54443 -158.91309 9718 ft 260 kts 297°
2026-04-12 05:43 21.55396 -158.92948 9409 ft 258 kts 297°
2026-04-12 05:43 21.56358 -158.94602 9120 ft 263 kts 297°
2026-04-12 05:43 21.57337 -158.96286 8833 ft 267 kts 298°
2026-04-12 05:44 21.58325 -158.97986 8540 ft 268 kts 298°
2026-04-12 05:44 21.59314 -158.99689 8256 ft 269 kts 298°
2026-04-12 05:44 21.60302 -159.01390 7958 ft 267 kts 298°
2026-04-12 05:44 21.61283 -159.03079 7668 ft 266 kts 298°
2026-04-12 05:45 21.62259 -159.04761 7380 ft 264 kts 298°
2026-04-12 05:45 21.63229 -159.06433 7103 ft 263 kts 298°
2026-04-12 05:45 21.64193 -159.08096 6813 ft 261 kts 298°
2026-04-12 05:45 21.65152 -159.09750 6533 ft 260 kts 298°
2026-04-12 05:46 21.66094 -159.11375 6239 ft 259 kts 298°
2026-04-12 05:46 21.67042 -159.13010 5934 ft 257 kts 298°
2026-04-12 05:46 21.67986 -159.14640 5652 ft 255 kts 298°
2026-04-12 05:46 21.68922 -159.16255 5373 ft 254 kts 298°
2026-04-12 05:47 21.69850 -159.17858 5100 ft 252 kts 298°
2026-04-12 05:47 21.70773 -159.19453 4831 ft 250 kts 298°
2026-04-12 05:47 21.71688 -159.21034 4536 ft 248 kts 298°
2026-04-12 05:47 21.72597 -159.22604 4260 ft 246 kts 299°
2026-04-12 05:48 21.73492 -159.24151 4110 ft 239 kts 299°
2026-04-12 05:48 21.74354 -159.25647 3974 ft 231 kts 299°
2026-04-12 05:48 21.75185 -159.27090 3837 ft 223 kts 299°
2026-04-12 05:48 21.75985 -159.28477 3725 ft 213 kts 299°
2026-04-12 05:49 21.76751 -159.29806 3644 ft 203 kts 299°
2026-04-12 05:49 21.77474 -159.31060 3561 ft 191 kts 299°
2026-04-12 05:49 21.78165 -159.32253 3441 ft 186 kts 302°
2026-04-12 05:49 21.79149 -159.33143 3253 ft 189 kts 334°
2026-04-12 05:50 21.80421 -159.33524 3093 ft 192 kts 349°
2026-04-12 05:50 21.81737 -159.33616 2877 ft 193 kts 358°
2026-04-12 05:50 21.83077 -159.33601 2651 ft 192 kts 359°
2026-04-12 05:50 21.84384 -159.33593 2423 ft 177 kts 359°
2026-04-12 05:51 21.85528 -159.33590 2247 ft 156 kts 359°
2026-04-12 05:51 21.86586 -159.33589 2026 ft 150 kts 359°
2026-04-12 05:51 21.87631 -159.33589 1832 ft 149 kts 360°
2026-04-12 05:51 21.88667 -159.33588 1638 ft 148 kts
2026-04-12 05:52 21.89697 -159.33589 1433 ft 148 kts
2026-04-12 05:52 21.90725 -159.33589 1235 ft 147 kts
2026-04-12 05:52 21.91753 -159.33600 1024 ft 150 kts
2026-04-12 05:52 21.92787 -159.33610 854 ft 148 kts
2026-04-12 05:53 21.93814 -159.33591 648 ft 148 kts
2026-04-12 05:53 21.94846 -159.33595 449 ft 148 kts
2026-04-12 05:53 21.95879 -159.33593 245 ft 149 kts
2026-04-12 05:53 21.96901 -159.33594 103 ft 140 kts
2026-04-12 05:54 21.97676 -159.33591 105 ft 66 kts
2026-04-12 05:54 21.98015 -159.33593 105 ft 33 kts 359°
2026-04-12 05:54 21.98149 -159.33627 105 ft 13 kts 305°
2026-04-12 05:54 21.98123 -159.33707 107 ft 15 kts 193°
2026-04-12 05:55 21.97982 -159.33710 107 ft 17 kts 186°
2026-04-12 05:55 21.97940 -159.33842 111 ft 28 kts 269°
2026-04-12 05:55 21.97940 -159.34107 124 ft 40 kts 270°
2026-04-12 05:55 21.97927 -159.34362 130 ft 24 kts 240°
2026-04-12 05:56 21.97797 -159.34509 140 ft 31 kts 224°
2026-04-12 05:56 21.97753 -159.34629 149 ft 19 kts 309°
2026-04-12 05:56 21.97846 -159.34677 156 ft 12 kts 340°
2026-04-12 05:56 21.97883 -159.34709 156 ft 1 kts 315°
2026-04-12 05:57 21.97883 -159.34710 156 ft 0 kts 315°